AirNav   Duncan Aviation - Near you to keep you flying
 
 1063 users online  

L70 Agua Dulce Airport
Agua Dulce, California, USA

GOING TO AGUA DULCE?


FAA INFORMATION EFFECTIVE 09 SEPTEMBER 2021

Location

FAA Identifier: L70
Lat/Long: 34-30-12.6534N 118-18-47.3658W
34-30.210890N 118-18.789430W
34.5035148,-118.3131572
(estimated)
Elevation: 2633 ft. / 803 m (estimated)
Variation: 14E (1985)
From city: 2 miles E of AGUA DULCE, CA
Time zone: UTC -7 (UTC -8 during Standard Time)
Zip code: 91350

Airport Operations

Airport use: Open to the public
Activation date: 10/1958
Control tower: no
ARTCC: LOS ANGELES CENTER
FSS: RIVERSIDE FLIGHT SERVICE STATION
NOTAMs facility: RAL (NOTAM-D service available)
Attendance: 0800-1800
AIRPORT UNATNDD CHRISTMAS DAY; THANKSGIVING DAY AND NEW YEARS DAY.
Wind indicator: yes
Segmented circle: yes

Airport Communications

CTAF/UNICOM: 122.8
WX ASOS at PMD (14 nm NE): PHONE 661-272-3798
WX ASOS at WJF (15 nm N): PHONE 661-949-2840
WX AWOS-3PT at WHP (15 nm S): 132.1 (818-899-9820)
WX ASOS at BUR (18 nm S): PHONE 818-841-1384
WX ASOS at VNY (20 nm SW): PHONE 818-904-9213

Nearby radio navigation aids

VOR radial/distance  VOR name  Freq  Var
PMDr223/14.5PALMDALE VORTAC114.5015E
LHSr115/16.9LAKE HUGHES VORTAC114.3515E
VNYr013/19.0VAN NUYS VOR/DME113.1015E
FIMr058/29.5FILLMORE VORTAC112.5015E
SMOr359/30.4SANTA MONICA VOR/DME110.8015E
GMNr108/32.5GORMAN VORTAC116.1016E
LAXr355/34.7LOS ANGELES VORTAC113.6015E
POMr299/36.5POMONA VORTAC110.4015E

Airport Services

Fuel available: 100LL
100LL:SELF SERVICE
Parking: tiedowns
Bottled oxygen: NONE
Bulk oxygen: NONE

Runway Information

Runway 4/22

Dimensions: 4205 x 50 ft. / 1282 x 15 m
Surface: asphalt, in good condition
RUNWAY 4  RUNWAY 22
Latitude: 34-30.002603N34-30.419177N
Longitude: 118-19.124070W118-18.454788W
Elevation: 2556.0 ft.2633.0 ft.
Traffic pattern: leftright
Displaced threshold: 180 ft.332 ft.
Markings: basic, in good conditionbasic, in good condition
Runway end identifier lights: nono
Touchdown point: yes, no lightsyes, no lights
Obstructions: 15 ft. bldg, 240 ft. from runway, 85 ft. right of centerline, 2:1 slope to clear
RWY 04 +15 FT HANGER 140-160 FT FM EOR 80 FT RIGHT.
4 ft. fence, 200 ft. from runway, 35 ft. right of centerline
+4 FT FENCE 0 FT - 200 FT FROM EOR DIAGONALLY FROM 50 FT LEFT TO 35 FT RIGHT.

Airport Ownership and Management from official FAA records

Ownership: Privately-owned
Owner: LAND SEA AIR LEASING CORPORATION
15853 OLDEN STREET, P.O. BOX 9203
SYLMAR, CA 91392
Phone (661) 268-8835
Manager: JOHN BONNER
33638 AGUA DULCE CANYON ROAD, P. O. BOX 9203
AGUA DULCE, CA 91390
Phone (661) 268-8835
DOUG ABNEY, ASST ARPT OPNS - PHONE 661-268-8835 CELL 661-268-8835. EMAIL: SUPPORT@L70AIRPORT.COM

Airport Operational Statistics

Aircraft based on the field: 33
Single engine airplanes: 27
Multi engine airplanes: 2
Helicopters: 3
Gliders airplanes: 1
    
Aircraft operations: avg 60/month *
50% transient general aviation
50% local general aviation
* for 12-month period ending 31 December 2016

Additional Remarks

RIDGE SOUTH OF AIRPORT PARALLEL TO RY VIOLATES 7:1 TRANSITIONAL SURFACE.
FORMATION ARRIVALS AND DEPARTURES PROHIBITED.
NO AEROBATICS PERMITTED.
AIRPORT CLSD SUNSET TO SUNRISE. ALL NIGHT OPERATIONS PROHIBITED BY LOCAL RESTRICTIONS.
ACTVT MIKE 5 TIMES ON CTAF FREQ FOR ARPT WX.
FOR CD CTC JOSHUA APCH AT 661-277-3843.
10-25 FT WIDE DITCH AT 170 FT ALONG SE EDGE OF RY.
TGL NOT PERMITTED.
AVOID FLYING WITHIN 1000 FT OF SCHOOL APRXLY ONE MILE SOUTHWEST. RY 04 DEP AVOID FLYING OVER HOMES 2,000 FT NE OF RY END.

Instrument Procedures

There are no published instrument procedures at L70.

Some nearby airports with instrument procedures:

KPMD - Palmdale USAF Plant 42 Airport (14 nm NE)
KWJF - General Wm J Fox Airfield (15 nm N)
KWHP - Whiteman Airport (15 nm S)
KBUR - Bob Hope Airport (18 nm S)
KVNY - Van Nuys Airport (20 nm SW)
 
Loc | Ops | Rwys | IFR | FBO | Links
Com | Nav | Svcs | Stats | Notes
Area around L70 (Agua Dulce Airport)
 
Road maps at: MapQuest Bing Google
 
Aerial photo
WARNING: Photo may not be current or correct
Aerial photo of L70 (Agua Dulce Airport)
Photo by Mark Robinson & eatsleepfly.com
Photo taken 08-Mar-2014
looking northwest.

Do you have a better or more recent aerial photo of Agua Dulce Airport that you would like to share? If so, please send us your photo.

 
Sectional chart

 
Airport distance calculator
Flying to Agua Dulce Airport? Find the distance to fly.

From to L70

Sunrise and sunset
Times for 27-Sep-2021
 Local
(UTC-7)
 Zulu
(UTC)
Morning civil twilight06:2113:21
Sunrise06:4613:46
Sunset18:4301:43
Evening civil twilight19:0802:08

Current date and time
Zulu (UTC)  28-Sep-2021 01:13:04
Local (UTC-7)  27-Sep-2021 18:13:04
 
METAR
KWJF 
14nm N 
280056Z 27023G31KT 10SM CLR 25/06 A2992 RMK AO2 PK WND 27032/0000 SLP117 T02500056
KPMD 
14nm NE 
280053Z 25016KT 10SM CLR 25/07 A2994 RMK AO2 PK WND 29026/0012 SLP115 T02500072
KWHP 
16nm S 
280050Z 13005KT 8SM HZ OVC023 19/14 A3001
KBUR 
18nm S 
280053Z 17004KT 10SM OVC023 19/13 A2996 RMK AO2 SLP136 T01890133 $
KVNY 
19nm SW 
280051Z 17007KT 10SM SCT040 19/13 A2996 RMK AO2 SLP140 T01940133
KSDB 
25nm NW 
280053Z AUTO 31013KT 10SM CLR 19/06 A3009 RMK AO2 PK WND 31027/0011 SLP139 T01940061
TAF
KWJF 
14nm N 
280000Z 2800/2824 27022G32KT P6SM SKC FM280200 25017G23KT P6SM SKC FM280600 25017KT P6SM SKC FM281700 27020G25KT P6SM SKC FM282100 27022G30KT P6SM SKC
KPMD 
14nm NE 
271745Z 2718/2818 21010KT P6SM SKC FM272100 24018G26KT P6SM SKC FM280300 24016KT P6SM SKC FM280800 22010KT P6SM SKC
KBUR 
18nm S 
271910Z 2719/2818 16006KT P6SM OVC015 FM272200 19008KT P6SM SCT020 FM280300 17006KT P6SM BKN020 FM280700 16005KT P6SM BKN015
KVNY 
19nm SW 
271745Z 2718/2818 00000KT P6SM OVC014 FM271900 16005KT P6SM BKN019 FM272200 17008KT P6SM SCT019 FM280300 16005KT P6SM BKN019 FM280700 15004KT P6SM BKN014
NOTAMs
Click for the latest NOTAMs
NOTAMs are issued by the DoD/FAA and will open in a separate window not controlled by AirNav.

 

 
 

FBO, Fuel Providers, and Aircraft Ground Support

  
 Business Name 
 
 Contact 
 
 Services / Description 
 
Fuel Prices
 
Comments
  
Agua Dulce Airport 661-268-8835
[web site]
[email]
Airport management, Aviation fuel, Aircraft parking (ramp or tiedown), Hangar leasing / sales, Restrooms

More info about Agua Dulce Airport
Avfuel
100LL
SS $5.58 
 Updated 21-Apr-2021
 
   write
SS=Self service
Update Fuel Prices
 

Would you like to see your business listed on this page?

 If your business provides an interesting product or service to pilots, flight crews, aircraft, or users of the Agua Dulce Airport, you should consider listing it here.  To start the listing process, click on the button below
 
Add a business
 

Other Pages about Agua Dulce Airport

www.l70airport.com
 
Update a link
 
Copyright © AirNav, LLC. All rights reserved. Privacy Policy  Contact